Prescott, AZ

10:11 AM MST on October 15, 2019 (GMT -0700)
Love

Weather History for KPRC - August, 2019

Change the Weather History Date:

Friday, August 9, 2019

  Actual Average Record
Temperature  
Mean Temperature 76 °F 74 °F  
Max Temperature 86 °F 87 °F 98 °F (1995)
Min Temperature 66 °F 62 °F 49 °F (2004)
Degree Days  
Heating Degree Days 0    
Month to date heating degree days 0  
Since 1 July heating degree days 0  
Cooling Degree Days 11    
Month to date cooling degree days 117  
Year to date cooling degree days 685  
Growing Degree Days 26 (Base 50)    
Moisture  
Dew Point 53 °F    
Average Humidity 48    
Maximum Humidity 68    
Minimum Humidity 30    
Precipitation  
Precipitation 0.00 in 0.10 in 0.70 in (2001)
Month to date precipitation 0.30 0.81  
Year to date precipitation 8.11 7.85  
Sea Level Pressure  
Sea Level Pressure 29.87 in    
Wind  
Wind Speed 9 mph (South)    
Max Wind Speed 20 mph    
Max Gust Speed 27 mph    
Visibility 10 miles    
Events      
T = Trace of Precipitation, MM = Missing Value Source: NWS Daily Summary

Daily Weather History Graph

Daily Weather History Graph

Search for Another Location

Airport or City:

Astronomy

Aug. 09, 2019 Rise Set
Actual Time 5:45 AM MST 7:24 PM MST
Civil Twilight 5:18 AM MST 7:51 PM MST
Nautical Twilight 4:45 AM MST 8:23 PM MST
Astronomical Twilight 4:11 AM MST 8:58 PM MST
Moon 3:06 PM MST (8/9) 12:46 AM MST (8/9)
Length of Visible Light 14h 32m
Length of Day
13h 38m
Waxing Gibbous, 71% of the Moon is Illuminated
Aug 9
Waxing Gibbous
Aug 15
Full
Aug 23
Last Quarter
Aug 30
New
Sep 5
First Quarter

Hourly Weather History & Observations

Time (MST) Temp. Heat Index Dew Point Humidity Pressure Visibility Wind Dir Wind Speed Gust Speed Precip Events Conditions
12:53 AM 71.1 °F - 54.0 °F 55% 29.85 in 10.0 mi SSW 3.5 mph - N/A   Clear
1:53 AM 69.1 °F - 54.0 °F 58% 29.84 in 10.0 mi South 6.9 mph - N/A   Clear
2:53 AM 68.0 °F - 53.1 °F 59% 29.83 in 10.0 mi SSW 8.1 mph - N/A   Clear
3:53 AM 68.0 °F - 53.1 °F 59% 29.83 in 10.0 mi South 9.2 mph - N/A   Clear
4:53 AM 66.0 °F - 55.0 °F 68% 29.85 in 10.0 mi South 6.9 mph - N/A   Clear
5:53 AM 66.0 °F - 53.1 °F 63% 29.87 in 10.0 mi SSE 6.9 mph - N/A   Clear
6:53 AM 70.0 °F - 53.1 °F 55% 29.88 in 10.0 mi South 8.1 mph - N/A   Clear
7:53 AM 75.0 °F - 52.0 °F 44% 29.89 in 10.0 mi ESE 9.2 mph - N/A   Clear
8:53 AM 77.0 °F - 52.0 °F 42% 29.91 in 10.0 mi SE 11.5 mph - N/A   Clear
9:53 AM 82.0 °F - 51.1 °F 34% 29.89 in 10.0 mi SE 12.7 mph - N/A   Clear
10:53 AM 82.9 °F - 50.0 °F 32% 29.90 in 10.0 mi SE 16.1 mph 20.7 mph N/A   Partly Cloudy
11:53 AM 84.0 °F - 52.0 °F 33% 29.88 in 10.0 mi SE 16.1 mph - N/A   Scattered Clouds
12:53 PM 86.0 °F - 51.1 °F 30% 29.87 in 10.0 mi SE 12.7 mph 23.0 mph N/A   Mostly Cloudy
1:53 PM 84.0 °F - 51.1 °F 32% 29.87 in 10.0 mi ESE 15.0 mph 25.3 mph N/A   Mostly Cloudy
2:53 PM 82.9 °F 81.9 °F 54.0 °F 37% 29.87 in 10.0 mi SSW 13.8 mph 20.7 mph N/A   Mostly Cloudy
3:53 PM 82.0 °F 81.2 °F 53.1 °F 37% 29.87 in 10.0 mi SSW 11.5 mph - N/A   Scattered Clouds
4:53 PM 81.0 °F 80.4 °F 53.1 °F 38% 29.86 in 10.0 mi SSW 12.7 mph - N/A   Scattered Clouds
5:53 PM 81.0 °F 80.4 °F 53.1 °F 38% 29.85 in 10.0 mi South 8.1 mph - N/A   Scattered Clouds
6:53 PM 78.1 °F - 54.0 °F 43% 29.86 in 10.0 mi South 5.8 mph - N/A   Scattered Clouds
7:53 PM 75.9 °F - 54.0 °F 46% 29.86 in 10.0 mi South 4.6 mph - N/A   Scattered Clouds
8:53 PM 73.0 °F - 55.0 °F 53% 29.88 in 10.0 mi South 4.6 mph - N/A   Clear
9:53 PM 70.0 °F - 55.9 °F 61% 29.88 in 10.0 mi SSW 4.6 mph - N/A   Clear
10:53 PM 69.1 °F - 55.0 °F 61% 29.88 in 10.0 mi SSW 6.9 mph - N/A   Clear
11:53 PM 66.9 °F - 55.9 °F 68% 29.87 in 10.0 mi South 4.6 mph - N/A   Clear